Regional Weather Roundup
Issued by NWS

Home | Current Version | Previous Version | Graphics & Text | Print | Product List | Glossary On
Versions: 1 2 3 4 5 6 7 8 9 10 11 12 13 14 15 16 17 18 19 20 21 22 23 24 25 26 27 28 29 30 31 32 33 34 35 36 37 38 39 40 41 42 43 44 45 46 47 48 49 50
000
ASUS45 KBOU 311310
RWRCO

WEATHER ROUNDUP FOR COLORADO
NATIONAL WEATHER SERVICE PUEBLO CO
700 AM MDT FRI JUL 31 2015

NOTE: "FAIR" INDICATES FEW OR NO CLOUDS BELOW 12000 FEET WITH NO
SIGNIFICANT WEATHER AND/OR OBSTRUCTIONS TO VISIBILITY.

COZ001>005-013-030-031-311400-
...NORTHWEST COLORADO...

CITY           SKY/WX    TMP DP  RH WIND       PRES   REMARKS
CRAIG          CLEAR     44  34  67 CALM      30.39R
HAYDEN         CLEAR     54  32  43 E9        30.40S
MEEKER         CLEAR     48  33  56 NE5       30.40R
MOUNT WERNER   NOT AVBL
STEAMBOAT SPGS NOT AVBL
WALDEN         FAIR      41  34  75 SE3       30.54R
$$

COZ006>008-011-311400-
...WEST CENTRAL VALLEYS...

CITY           SKY/WX    TMP DP  RH WIND       PRES   REMARKS
GRAND JUNCTION CLEAR     59  29  31 CALM      30.27R
MONTROSE       PTCLDY    59  41  51 S8        30.37R
EAGLE          PTCLDY    50  36  57 CALM      30.47R
RIFLE          CLEAR     56  33  42 CALM      30.35R
DELTA          NOT AVBL
NUCLA          FAIR      61  43  51 SE8       30.42R
$$

COZ017>023-064>068-311400-
...SOUTHWEST COLORADO...

CITY           SKY/WX    TMP DP  RH WIND       PRES   REMARKS
DURANGO        CLOUDY    59  57  93 NE3       30.43R
CORTEZ         PTCLDY    61  58  90 SW5       30.38R
PAGOSA SPRINGS FAIR      59  55  85 CALM      30.50R
TELLURIDE      CLOUDY    57  43  61 CALM      30.60R
WOLF CREEK PAS NOT AVBL
$$

COZ009-010-012-014-032>034-037-058>063-311400-
...CENTRAL COLORADO...

CITY           SKY/WX    TMP DP  RH WIND       PRES   REMARKS
ASPEN          CLEAR     52  44  74 CALM      30.48R
BUENA VISTA    MOCLDY    55  46  74 NW10      30.54S
COPPER MTN     NOT AVBL
BERTHOUD PASS  FAIR      45  36  70 CALM      30.86R
COTTONWOOD PAS PTCLDY    55  43  62 W7        30.66S
GUNNISON       MOCLDY    54  43  66 CALM      30.53R
KREMMLING      CLEAR     45  37  76 CALM      30.53R
LEADVILLE      PTCLDY    44  42  93 CALM      30.66R
MONARCH PASS   CLOUDY    48  41  76 E3        30.90S
SALIDA         FAIR      61  51  70 NW6       30.59R
NIWOT RIDGE    NOT AVBL
SUNLIGHT       CLEAR     54  41  62 CALM      30.73R
WILKERSON PASS CLEAR     52  36  54 CALM      30.78S
$$

COZ069>075-311400-
...SAN LUIS VALLEY/SANGRE DE CRISTO MOUNTAINS...

CITY           SKY/WX    TMP DP  RH WIND       PRES   REMARKS
ALAMOSA        MOCLDY    54  50  86 SE3       30.49R
LA VETA PASS   MOCLDY    50  45  81 MISG      30.67R
SAGUACHE       CLOUDY    57  50  77 N3        30.53R
$$

COZ035-036-038>040-311400-
...NORTHERN COLORADO FRONT RANGE...

CITY           SKY/WX    TMP DP  RH WIND       PRES   REMARKS
DENVER INTL AP MOSUNNY   65  57  75 W7        30.35R
DMNS CITY PARK NOT AVBL
AURORA         MOSUNNY   63  54  74 SW2       30.37S
FRONT RANGE AP MOSUNNY   61  54  77 MISG      30.36
ERIE MUNI ARPT NOT AVBL
BOULDER MUN AP NOT AVBL
CENTENNIAL     MOSUNNY   65  50  58 W6        30.38R
BROOMFIELD     MOSUNNY   63  57  82 CALM      30.37R
LOVELAND       SUNNY     61  55  82 N3        30.34S
LONGMONT       NOT AVBL
$$

COZ041-046-047-076>085-087-088-311400-
...PIKES PEAK/PALMER DIVIDE AND SOUTHERN FOOTHILLS...

CITY           SKY/WX    TMP DP  RH WIND       PRES   REMARKS
COLO. SPRINGS  MOSUNNY   60  55  83 N5        30.42S
A. F. ACADEMY  SUNNY     54  51  92 N6        30.44R
ELLICOTT       FAIR     N/A N/A N/A N3        30.40S FOG
FALCON         NOT AVBL
FORT CARSON    SUNNY     61  55  81 NW5       30.39R
LIMON          SUNNY     58  56  93 CALM      30.37R
MONUMENT HILL  SUNNY     55  50  82 S6        30.46S
TRINIDAD       MOSUNNY   62  54  74 W10       30.37S
$$

COZ042>045-048>051-090-091-311400-
...NORTHEAST COLORADO...

CITY           SKY/WX    TMP DP  RH WIND       PRES   REMARKS
GREELEY ARPT   SUNNY     59  55  88 CALM      30.33R
AKRON          SUNNY     62  55  77 S8        30.33R
BURLINGTON     SUNNY     63  60  90 CALM      30.31S
WRAY           FAIR      61  58  90 CALM      30.29R
STERLING       NOT AVBL
HOLYOKE        NOT AVBL
FORT MORGAN    FAIR      60  56  87 E7        30.32R
$$

COZ086-089-092>099-311400-
...SOUTHEAST COLORADO...

CITY           SKY/WX    TMP DP  RH WIND       PRES   REMARKS
PUEBLO         SUNNY     67  58  72 N3        30.31F
LA JUNTA       SUNNY     66  63  90 N5        30.29R
LAMAR          PTSUNNY   68  65  90 E7        30.26R FOG
SPRINGFIELD      N/A     64  63  96 S7        30.31R
$$




USA.gov is the U.S. government's official web portal to all federal, state and local government web resources and services.